TimeEDT,TemperatureF,Dew PointF,Humidity,Sea Level PressureIn,VisibilityMPH,Wind Direction,Wind SpeedMPH,Gust SpeedMPH,PrecipitationIn,Events,Conditions,WindDirDegrees,DateUTC
12:52 AM,57.0,39.9,53,30.01,10.0,NE,3.5,-,N/A,,Overcast,40,2013-05-07 04:52:00
1:52 AM,55.9,42.1,60,30.00,10.0,Calm,Calm,-,N/A,,Scattered Clouds,0,2013-05-07 05:52:00
2:52 AM,52.0,42.1,69,29.98,10.0,Calm,Calm,-,N/A,,Clear,0,2013-05-07 06:52:00
3:52 AM,51.8,42.8,71,29.99,10.0,NNW,3.5,-,N/A,,Clear,330,2013-05-07 07:52:00
4:52 AM,48.9,43.0,80,29.99,10.0,Calm,Calm,-,N/A,,Clear,0,2013-05-07 08:52:00
5:52 AM,48.0,43.0,83,30.01,10.0,Calm,Calm,-,N/A,,Clear,0,2013-05-07 09:52:00
6:52 AM,48.0,43.0,83,30.02,10.0,Calm,Calm,-,N/A,,Clear,0,2013-05-07 10:52:00
7:52 AM,52.0,45.0,77,30.03,10.0,Calm,Calm,-,N/A,,Mostly Cloudy,0,2013-05-07 11:52:00
8:52 AM,59.0,48.9,69,30.04,10.0,NNE,4.6,-,N/A,,Clear,30,2013-05-07 12:52:00
9:52 AM,63.0,52.0,67,30.04,10.0,NE,9.2,-,N/A,,Mostly Cloudy,40,2013-05-07 13:52:00
10:52 AM,66.9,52.0,59,30.04,10.0,ENE,9.2,-,N/A,,Overcast,60,2013-05-07 14:52:00
11:52 AM,69.1,51.1,53,30.04,10.0,NE,13.8,-,N/A,,Partly Cloudy,40,2013-05-07 15:52:00
12:52 PM,71.1,50.0,47,30.02,10.0,NE,17.3,21.9,N/A,,Clear,50,2013-05-07 16:52:00
1:52 PM,71.1,50.0,47,30.02,10.0,ENE,12.7,23.0,N/A,,Clear,70,2013-05-07 17:52:00
2:52 PM,72.0,48.0,43,30.01,10.0,NE,17.3,24.2,N/A,,Clear,50,2013-05-07 18:52:00
3:52 PM,72.0,48.0,43,30.00,10.0,ENE,15.0,23.0,N/A,,Clear,70,2013-05-07 19:52:00
4:52 PM,72.0,48.9,44,29.99,10.0,ENE,15.0,20.7,N/A,,Clear,60,2013-05-07 20:52:00
5:52 PM,70.0,48.9,47,29.99,10.0,ENE,11.5,-,N/A,,Clear,60,2013-05-07 21:52:00
6:52 PM,70.0,50.0,49,29.99,10.0,East,10.4,-,N/A,,Mostly Cloudy,80,2013-05-07 22:52:00
7:52 PM,66.0,48.9,54,30.00,10.0,East,9.2,-,N/A,,Scattered Clouds,90,2013-05-07 23:52:00
8:52 PM,63.0,48.9,60,30.00,10.0,East,5.8,-,N/A,,Clear,90,2013-05-08 00:52:00
9:52 PM,61.0,46.9,60,30.01,10.0,East,5.8,-,N/A,,Scattered Clouds,90,2013-05-08 01:52:00
10:52 PM,60.1,48.0,64,30.01,10.0,Calm,Calm,-,N/A,,Mostly Cloudy,0,2013-05-08 02:52:00
11:52 PM,59.0,48.0,67,30.01,10.0,Calm,Calm,-,N/A,,Scattered Clouds,0,2013-05-08 03:52:00